FW3684 Weather Reports


Display with metric or nautical units.
time (UTC)temp
F
wind
direction
speed
MPH
gust
MPH
rain 1hr
in
rain 24hr
in
rain mn
in
humidity
%
barometer
mb
20260508185047 68 234 2.0 9.0 0.00 0.00 0.00 48 1016.8
20260508184601 68 212 3.0 10.0 0.00 0.00 0.00 51 1016.7
20260508184047 67 242 3.0 14.0 0.00 0.00 0.00 51 1016.8
20260508183548 66 269 7.0 11.0 0.00 0.00 0.00 49 1016.9
20260508182549 66 297 5.0 13.0 0.00 0.00 0.00 47 1016.8
20260508182048 66 263 7.0 13.0 0.00 0.00 0.00 50 1016.9
20260508181600 67 252 9.0 13.0 0.00 0.00 0.00 47 1017.1
20260508181049 67 282 4.0 12.0 0.00 0.00 0.00 47 1017.2
20260508180549 67 268 4.0 11.0 0.00 0.00 0.00 43 1017.3
20260508180048 68 230 4.0 11.0 0.00 0.00 0.00 41 1017.4
20260508175547 68 256 3.0 11.0 0.00 0.00 0.00 45 1017.2
20260508175048 68 210 1.0 8.0 0.00 0.00 0.00 41 1017.2
20260508174547 69 278 2.0 7.0 0.00 0.00 0.00 41 1017.4
20260508174046 68 86 0.0 5.0 0.00 0.00 0.00 42 1017.4
20260508173547 67 225 1.0 7.0 0.00 0.00 0.00 38 1017.6
20260508172544 67 24 3.0 5.0 0.00 0.00 0.00 36 1017.5
20260508172044 66 218 1.0 7.0 0.00 0.00 0.00 42 1017.6
20260508171543 64 142 3.0 8.0 0.00 0.00 0.00 40 1017.6
20260508171047 64 271 2.0 10.0 0.00 0.00 0.00 45 1017.8
20260508170542 64 271 5.0 12.0 0.00 0.00 0.00 42 1017.9
20260508170042 66 266 6.0 12.0 0.00 0.00 0.00 41 1017.9
20260508165540 67 115 2.0 7.0 0.00 0.00 0.00 43 1018.1
20260508165039 66 97 2.0 6.0 0.00 0.00 0.00 43 1018.1
20260508164549 66 236 1.0 12.0 0.00 0.00 0.00 44 1018.3
20260508164039 65 264 2.0 12.0 0.00 0.00 0.00 44 1018.3
20260508163542 66 266 1.0 7.0 0.00 0.00 0.00 43 1018.4
20260508162538 67 174 1.0 5.0 0.00 0.00 0.00 45 1018.4
20260508162035 66 70 0.0 5.0 0.00 0.00 0.00 48 1018.5
20260508161538 65 215 2.0 5.0 0.00 0.00 0.00 54 1018.6
20260508161035 64 274 1.0 6.0 0.00 0.00 0.00 49 1018.7
20260508160532 64 131 1.0 12.0 0.00 0.00 0.00 52 1018.7
20260508160033 63 127 5.0 12.0 0.00 0.00 0.00 53 1018.9
20260508155533 64 236 0.0 6.0 0.00 0.00 0.00 49 1018.9
20260508155032 63 242 1.0 8.0 0.00 0.00 0.00 52 1019.1
20260508154533 62 326 1.0 5.0 0.00 0.00 0.00 50 1019.2
20260508154031 62 290 2.0 6.0 0.00 0.00 0.00 49 1019.2
20260508153530 62 252 3.0 9.0 0.00 0.00 0.00 52 1019.2
20260508152530 61 262 5.0 9.0 0.00 0.00 0.00 51 1019.3
20260508152029 60 345 2.0 8.0 0.00 0.00 0.00 52 1019.3
20260508151530 61 273 4.0 8.0 0.00 0.00 0.00 50 1019.2
20260508151031 60 264 1.0 6.0 0.00 0.00 0.00 50 1019.3
20260508150529 60 160 2.0 11.0 0.00 0.00 0.00 51 1019.3
20260508150033 61 283 5.0 11.0 0.00 0.00 0.00 51 1019.3
20260508145527 61 228 4.0 11.0 0.00 0.00 0.00 51 1019.3
20260508145027 61 278 3.0 7.0 0.00 0.00 0.00 52 1019.3
20260508144545 61 199 3.0 5.0 0.00 0.00 0.00 50 1019.4
20260508144027 61 198 0.0 4.0 0.00 0.00 0.00 53 1019.4
20260508143527 61 276 0.0 5.0 0.00 0.00 0.00 51 1019.5
20260508142528 60 255 0.0 3.0 0.00 0.00 0.00 51 1019.5
20260508142025 59 275 0.0 5.0 0.00 0.00 0.00 48 1019.6
20260508141525 59 255 2.0 5.0 0.00 0.00 0.00 52 1019.5
20260508141023 59 172 1.0 4.0 0.00 0.00 0.00 56 1019.5
20260508140523 58 75 0.0 3.0 0.00 0.00 0.00 55 1019.6
20260508140022 58 238 1.0 5.0 0.00 0.00 0.00 60 1019.6
20260508135522 57 214 3.0 5.0 0.00 0.00 0.00 58 1019.6
20260508135019 57 238 0.0 3.0 0.00 0.00 0.00 62 1019.6
20260508134526 56 243 0.0 2.0 0.00 0.00 0.00 63 1019.5
20260508134016 56 192 0.0 5.0 0.00 0.00 0.00 63 1019.5
20260508133519 55 218 1.0 7.0 0.00 0.00 0.00 70 1019.6
20260508132515 54 255 3.0 6.0 0.00 0.00 0.00 73 1019.5
20260508132015 53 267 2.0 4.0 0.00 0.00 0.00 73 1019.4
20260508131515 53 217 1.0 3.0 0.00 0.00 0.00 76 1019.6
20260508131014 52 221 1.0 3.0 0.00 0.00 0.00 77 1019.6
20260508130513 52 231 1.0 2.0 0.00 0.00 0.00 77 1019.6
20260508130013 51 271 0.0 2.0 0.00 0.00 0.00 77 1019.6
20260508125513 51 266 0.0 2.0 0.00 0.00 0.00 79 1019.5
20260508125012 50 236 0.0 2.0 0.00 0.00 0.00 79 1019.7
20260508124513 50 23 0.0 3.0 0.00 0.00 0.00 80 1019.6
20260508124012 49 33 2.0 4.0 0.00 0.00 0.00 82 1019.6
20260508123514 48 71 0.0 4.0 0.00 0.00 0.00 85 1019.6
20260508122511 46 136 0.0 0.0 0.00 0.00 0.00 89 1019.5
20260508122012 46 72 0.0 0.0 0.00 0.00 0.00 90 1019.5
20260508121512 46 73 0.0 0.0 0.00 0.00 0.00 91 1019.4
20260508121013 45 73 0.0 0.0 0.00 0.00 0.00 92 1019.5
20260508120511 45 79 0.0 0.0 0.00 0.06 0.00 92 1019.4
20260508120010 45 75 0.0 0.0 0.00 0.06 0.00 93 1019.4
20260508115510 45 75 0.0 0.0 0.00 0.06 0.00 94 1019.4
20260508115010 44 77 0.0 0.0 0.00 0.06 0.00 96 1019.3
20260508114510 44 77 0.0 0.0 0.00 0.06 0.00 97 1019.3
20260508114011 43 77 0.0 0.0 0.00 0.06 0.00 97 1019.3
20260508113513 43 77 0.0 0.0 0.00 0.06 0.00 97 1019.2
20260508112509 41 78 0.0 0.0 0.00 0.06 0.00 97 1018.9
20260508112006 40 82 0.0 0.0 0.00 0.06 0.00 97 1018.8
20260508111506 40 39 0.0 0.0 0.00 0.06 0.00 97 1018.6
20260508111009 40 37 0.0 0.0 0.00 0.06 0.00 97 1018.5
20260508110504 40 41 0.0 0.0 0.00 0.11 0.00 96 1018.6
20260508110008 40 77 0.0 0.0 0.00 0.11 0.00 96 1018.5
20260508105503 40 78 0.0 0.0 0.00 0.11 0.00 96 1018.4
20260508105002 40 65 0.0 0.0 0.00 0.11 0.00 97 1018.3
20260508104500 40 65 0.0 0.0 0.00 0.11 0.00 96 1018.2
20260508104000 40 66 0.0 0.0 0.00 0.11 0.00 96 1018.1
20260508103604 40 70 0.0 0.0 0.00 0.11 0.00 96 1018.1
20260508103203 40 60 0.0 0.0 0.00 0.11 0.00 96 1017.8
20260508102559 40 58 0.0 0.0 0.00 0.11 0.00 96 1017.8
20260508102059 40 80 0.0 0.0 0.00 0.11 0.00 96 1017.7
20260508101615 41 44 0.0 0.0 0.00 0.11 0.00 96 1017.6
20260508101058 41 27 0.0 0.0 0.00 0.11 0.00 96 1017.5
20260508100556 41 41 0.0 0.0 0.00 0.11 0.00 96 1017.4
20260508100056 41 49 0.0 0.0 0.00 0.11 0.00 96 1017.4
20260508095556 41 72 0.0 0.0 0.00 0.11 0.00 96 1017.3
20260508095054 41 76 0.0 0.0 0.00 0.11 0.00 96 1017.3
20260508094553 42 60 0.0 0.0 0.00 0.11 0.00 96 1017.2
20260508094052 42 60 0.0 0.0 0.00 0.11 0.00 96 1017.2
20260508093555 42 65 0.0 0.0 0.00 0.11 0.00 96 1017.2
20260508093152 42 72 0.0 1.0 0.00 0.11 0.00 95 1017.1
20260508092551 42 72 0.0 2.0 0.00 0.11 0.00 95 1017.1
20260508092052 42 42 0.0 3.0 0.00 0.11 0.00 95 1017.1
20260508091558 42 31 1.0 3.0 0.00 0.11 0.00 95 1017.0
20260508091048 42 76 0.0 2.0 0.00 0.11 0.00 95 1017.0
20260508090548 42 77 1.0 2.0 0.00 0.11 0.00 95 1017.0
20260508085546 43 38 0.0 2.0 0.00 0.11 0.00 95 1016.9
20260508085046 43 36 1.0 2.0 0.00 0.11 0.00 95 1016.8
20260508084546 43 79 0.0 1.0 0.00 0.11 0.00 95 1016.7
20260508084043 43 79 0.0 2.0 0.00 0.11 0.00 94 1016.7
20260508083543 43 91 0.0 1.0 0.00 0.11 0.00 94 1016.6
20260508083144 43 91 0.0 1.0 0.00 0.11 0.00 94 1016.6
20260508082544 43 91 0.0 1.0 0.00 0.11 0.00 94 1016.7
20260508082043 44 91 0.0 2.0 0.00 0.11 0.00 94 1016.6
20260508081542 44 91 1.0 2.0 0.00 0.11 0.00 94 1016.5
20260508081042 44 108 0.0 1.0 0.00 0.11 0.00 94 1016.5
20260508080541 44 112 0.0 3.0 0.00 0.11 0.00 93 1016.3
20260508080040 44 63 0.0 3.0 0.00 0.11 0.00 94 1016.5
20260508075539 44 76 0.0 2.0 0.00 0.11 0.00 93 1016.4
20260508075039 44 76 1.0 2.0 0.00 0.11 0.00 93 1016.2
20260508074542 45 82 0.0 0.0 0.00 0.11 0.00 93 1016.2
20260508074037 45 359 0.0 0.0 0.00 0.11 0.00 92 1016.2
20260508073540 45 359 0.0 0.0 0.00 0.11 0.00 92 1016.1
20260508073138 45 359 0.0 0.0 0.00 0.11 0.00 91 1016.0
20260508072535 46 359 0.0 0.0 0.00 0.11 0.00 91 1015.9
20260508072035 46 359 0.0 0.0 0.00 0.11 0.00 91 1016.0
20260508071545 46 359 0.0 0.0 0.00 0.11 0.00 91 1015.9
20260508071035 46 359 0.0 0.0 0.00 0.11 0.00 90 1016.0
20260508070531 46 359 0.0 0.0 0.00 0.11 0.00 90 1015.7
20260508070030 47 347 0.0 0.0 0.00 0.11 0.00 89 1015.7
20260508065529 47 16 0.0 1.0 0.00 0.11 0.00 89 1015.7
20260508065027 47 14 0.0 2.0 0.00 0.11 0.00 88 1015.8
20260508064529 48 65 0.0 1.0 0.00 0.11 0.00 87 1015.6
20260508064025 48 304 0.0 1.0 0.00 0.11 0.00 86 1015.7
20260508063524 49 304 0.0 1.0 0.00 0.11 0.00 86 1015.5
20260508063124 49 293 0.0 2.0 0.00 0.11 0.00 84 1015.4
20260508062523 50 293 0.0 2.0 0.00 0.11 0.00 84 1015.4
20260508062022 50 280 0.0 2.0 0.00 0.11 0.00 83 1015.3
20260508061522 51 347 0.0 2.0 0.00 0.11 0.00 83 1015.3
20260508061021 52 242 0.0 4.0 0.00 0.11 0.00 81 1015.2
20260508060519 52 266 0.0 7.0 0.00 0.11 0.00 80 1015.2
20260508060017 52 225 3.0 7.0 0.00 0.11 0.00 79 1015.2
20260508055516 52 195 0.0 8.0 0.00 0.11 0.00 80 1015.1
20260508055015 53 259 4.0 7.0 0.00 0.11 0.00 78 1015.2
20260508054517 53 220 2.0 10.0 0.00 0.11 0.00 76 1015.3
20260508054017 54 264 3.0 10.0 0.00 0.11 0.00 74 1015.0
20260508053512 54 231 3.0 14.0 0.00 0.11 0.00 72 1015.0
20260508053122 54 267 2.0 12.0 0.00 0.11 0.00 74 1015.0
20260508052514 54 244 3.0 12.0 0.00 0.11 0.00 74 1014.9
20260508052011 54 162 0.0 9.0 0.00 0.11 0.00 74 1014.9
20260508051512 54 278 3.0 9.0 0.00 0.11 0.00 73 1014.9
20260508051011 54 233 2.0 8.0 0.00 0.11 0.00 74 1014.9
20260508050513 54 234 2.0 8.0 0.00 0.11 0.00 74 1014.9
20260508050011 54 203 2.0 10.0 0.00 0.11 0.00 75 1014.9
20260508045513 54 158 0.0 9.0 0.00 0.11 0.00 76 1014.8
20260508045009 54 205 2.0 9.0 0.00 0.11 0.00 75 1014.8
20260508044509 55 278 5.0 9.0 0.00 0.11 0.00 73 1014.7
20260508044007 55 263 0.0 11.0 0.00 0.11 0.00 73 1014.7
20260508043507 55 260 3.0 11.0 0.00 0.11 0.00 72 1014.7
20260508043106 55 302 4.0 7.0 0.00 0.11 0.00 72 1014.8
20260508042505 55 280 4.0 8.0 0.00 0.11 0.00 73 1014.8
20260508042004 55 276 2.0 8.0 0.00 0.11 0.00 73 1014.7
20260508041503 55 307 2.0 8.0 0.00 0.11 0.00 75 1014.8
20260508041002 55 250 4.0 10.0 0.00 0.11 0.00 75 1014.7
20260508040504 55 233 1.0 13.0 0.00 0.12 0.11 74 1014.8
20260508040001 55 283 4.0 13.0 0.00 0.12 0.11 75 1014.8
20260508035501 56 230 6.0 20.0 0.00 0.12 0.11 74 1014.7
20260508035100 56 53 10.0 20.0 0.00 0.12 0.11 72 1014.8
20260508034604 55 108 5.0 16.0 0.00 0.12 0.11 73 1014.9
20260508034104 55 120 8.0 28.0 0.00 0.12 0.11 74 1014.7
20260508033558 56 224 4.0 28.0 0.00 0.12 0.11 74 1014.7
20260508033058 55 266 8.0 15.0 0.00 0.12 0.11 75 1014.8
20260508032559 55 217 6.0 15.0 0.00 0.12 0.11 75 1014.8
20260508032101 55 255 2.0 15.0 0.00 0.12 0.11 74 1014.8
20260508031600 55 184 5.0 14.0 0.00 0.12 0.11 74 1014.9
20260508031058 55 243 4.0 19.0 0.00 0.12 0.11 74 1014.9
20260508030557 55 226 6.0 19.0 0.00 0.13 0.11 74 1014.8
20260508030057 56 257 2.0 17.0 0.00 0.13 0.11 73 1014.9
20260508025555 56 331 6.0 18.0 0.00 0.13 0.11 73 1014.6
20260508025058 55 253 5.0 13.0 0.00 0.13 0.11 73 1014.7
20260508024605 55 275 4.0 14.0 0.00 0.13 0.11 73 1014.6
20260508024055 55 255 5.0 14.0 0.00 0.13 0.11 74 1014.4
20260508023553 55 221 2.0 10.0 0.00 0.13 0.11 74 1014.3
20260508023053 55 192 4.0 20.0 0.00 0.13 0.11 74 1014.2
20260508022555 55 186 4.0 20.0 0.00 0.13 0.11 74 1014.2
20260508022052 54 266 6.0 12.0 0.00 0.13 0.11 76 1014.1
20260508021552 54 201 1.0 8.0 0.00 0.13 0.11 77 1014.2
20260508021053 55 216 2.0 8.0 0.00 0.13 0.11 76 1014.2
20260508020551 55 223 1.0 9.0 0.00 0.16 0.11 75 1014.3
20260508020053 54 224 3.0 11.0 0.00 0.16 0.11 77 1014.2
20260508015551 55 269 2.0 11.0 0.00 0.16 0.11 74 1014.2
20260508015051 55 233 2.0 13.0 0.00 0.16 0.11 75 1013.9
20260508014551 54 214 2.0 6.0 0.00 0.16 0.11 77 1013.8
20260508014053 54 117 1.0 6.0 0.00 0.16 0.11 77 1013.5
20260508013549 54 201 1.0 5.0 0.00 0.16 0.11 77 1013.5
20260508013051 54 229 5.0 13.0 0.00 0.16 0.11 76 1013.5
20260508012551 54 233 4.0 13.0 0.00 0.16 0.11 76 1013.5
20260508012049 55 221 4.0 13.0 0.00 0.16 0.11 76 1013.5
20260508011555 55 233 4.0 12.0 0.00 0.16 0.11 77 1013.3
20260508011047 55 128 4.0 19.0 0.00 0.16 0.11 76 1013.2
20260508010548 55 212 5.0 12.0 0.00 0.22 0.11 76 1013.3
20260508010048 55 184 6.0 15.0 0.00 0.22 0.11 75 1013.3
20260508005549 55 238 6.0 15.0 0.00 0.22 0.11 75 1013.4
20260508005045 55 298 6.0 16.0 0.00 0.22 0.11 75 1013.3
20260508004544 56 326 4.0 16.0 0.00 0.22 0.11 74 1013.3
20260508004043 56 226 3.0 12.0 0.00 0.22 0.11 72 1013.2
20260508003541 56 274 4.0 17.0 0.00 0.22 0.11 72 1012.9
20260508003042 56 311 4.0 13.0 0.00 0.22 0.11 70 1012.5
20260508002545 56 233 4.0 13.0 0.00 0.22 0.11 70 1012.4
20260508002043 57 161 5.0 11.0 0.00 0.22 0.11 69 1012.5
20260508001545 57 65 2.0 16.0 0.00 0.22 0.11 69 1012.6
20260508001042 57 259 7.0 16.0 0.00 0.22 0.11 70 1012.5
20260508000541 57 203 3.0 11.0 0.00 0.28 0.11 70 1012.5
20260508000041 57 274 4.0 19.0 0.00 0.28 0.11 70 1012.7
20260507235541 57 223 5.0 17.0 0.00 0.28 0.11 70 1012.6
20260507235045 57 260 9.0 18.0 0.00 0.28 0.11 70 1013.0
20260507234541 57 230 4.0 18.0 0.00 0.28 0.11 71 1013.0
20260507234039 57 212 5.0 18.0 0.00 0.28 0.11 70 1013.2
20260507233539 57 251 8.0 21.0 0.00 0.28 0.11 69 1013.1
20260507233054 58 262 7.0 19.0 0.00 0.28 0.11 68 1013.2
20260507232535 58 257 8.0 19.0 0.00 0.28 0.11 67 1013.4
20260507232034 58 274 8.0 14.0 0.00 0.28 0.11 66 1013.3
20260507231538 58 250 6.0 21.0 0.00 0.28 0.11 67 1013.1
20260507231034 59 283 8.0 21.0 0.00 0.28 0.11 66 1013.1
20260507230532 59 226 5.0 17.0 0.00 0.28 0.11 66 1013.1
20260507230033 59 216 7.0 17.0 0.00 0.28 0.11 66 1013.1
20260507225532 59 274 10.0 17.0 0.00 0.28 0.11 66 1013.1
20260507225033 60 257 7.0 22.0 0.00 0.28 0.11 67 1012.9
20260507224531 60 267 3.0 17.0 0.00 0.28 0.11 69 1012.8
20260507224034 60 278 4.0 16.0 0.00 0.28 0.11 69 1012.8
20260507223534 60 212 6.0 23.0 0.00 0.28 0.11 69 1012.5
20260507223030 60 219 9.0 24.0 0.00 0.28 0.11 68 1012.4
20260507222531 60 197 11.0 24.0 0.00 0.28 0.11 68 1012.3
20260507222029 60 268 8.0 18.0 0.00 0.28 0.11 68 1012.5
20260507221534 60 202 9.0 26.0 0.00 0.28 0.11 68 1012.3
20260507221028 60 206 8.0 27.0 0.00 0.28 0.11 69 1012.2
20260507220531 61 254 5.0 15.0 0.00 0.28 0.11 67 1012.1
20260507220029 62 220 8.0 14.0 0.00 0.28 0.11 68 1011.9
20260507215529 62 292 5.0 18.0 0.00 0.28 0.11 68 1011.8
20260507215027 63 273 6.0 20.0 0.00 0.28 0.11 66 1011.9
20260507214526 63 255 5.0 20.0 0.00 0.28 0.11 68 1011.6
20260507214028 64 16 5.0 13.0 0.00 0.28 0.11 67 1011.5
20260507213526 64 245 4.0 17.0 0.00 0.28 0.11 68 1011.5
20260507213031 64 141 10.0 19.0 0.00 0.28 0.11 65 1011.3
20260507212525 65 333 11.0 19.0 0.00 0.28 0.11 64 1011.4
20260507212025 65 228 5.0 10.0 0.00 0.28 0.11 66 1011.2
20260507211525 65 291 1.0 11.0 0.00 0.28 0.11 66 1011.1
20260507211027 65 269 5.0 16.0 0.00 0.28 0.11 66 1011.0
20260507210524 65 249 3.0 16.0 0.00 0.28 0.11 65 1011.0
20260507210024 66 359 3.0 11.0 0.00 0.28 0.11 64 1011.0
20260507205524 67 20 2.0 13.0 0.00 0.28 0.11 64 1011.0
20260507205024 66 136 3.0 13.0 0.00 0.28 0.11 66 1010.8
20260507204523 66 242 6.0 12.0 0.00 0.28 0.11 64 1010.6
20260507204023 66 169 3.0 12.0 0.00 0.28 0.11 65 1010.7
20260507203523 67 335 5.0 13.0 0.00 0.28 0.11 64 1010.6
20260507203023 68 265 1.0 16.0 0.00 0.28 0.11 65 1010.4
20260507202523 67 239 2.0 16.0 0.00 0.28 0.11 66 1010.5
20260507202023 67 323 4.0 13.0 0.00 0.28 0.11 65 1010.5
20260507201523 68 16 7.0 13.0 0.00 0.28 0.11 64 1010.4
20260507201024 68 254 5.0 16.0 0.00 0.28 0.11 64 1010.3
20260507200522 68 288 5.0 16.0 0.00 0.28 0.11 66 1010.2
20260507200022 68 124 5.0 13.0 0.00 0.28 0.11 64 1009.9
20260507195522 68 34 5.0 13.0 0.00 0.28 0.11 65 1010.1
20260507195022 69 185 5.0 14.0 0.00 0.28 0.11 65 1010.4
20260507194529 70 49 3.0 14.0 0.00 0.28 0.11 64 1010.2
20260507194021 70 143 6.0 13.0 0.00 0.28 0.11 63 1010.0
20260507193521 70 290 4.0 11.0 0.00 0.28 0.11 64 1009.9
20260507193028 69 360 6.0 19.0 0.00 0.28 0.11 64 1010.0
20260507192521 69 286 6.0 14.0 0.00 0.28 0.11 64 1009.8
20260507192021 70 229 4.0 15.0 0.00 0.28 0.11 65 1009.7
20260507191530 70 303 7.0 15.0 0.00 0.28 0.11 63 1009.8
20260507191021 70 282 5.0 13.0 0.00 0.28 0.11 64 1009.7
20260507190521 70 356 5.0 15.0 0.00 0.28 0.11 64 1009.8
20260507190022 70 53 4.0 15.0 0.00 0.28 0.11 63 1009.8
20260507185520 71 317 3.0 14.0 0.00 0.28 0.11 64 1010.1